CZ-3B DEB, 40185

Orbit data source: Space-Track

CZ-3B DEB, 40185 is space debris originally from a launch on Mon, 19 Dec 2011 UTC launched from the Xichang Space Center, China (XSC). Debris objects in space refer to the collection of defunct objects orbiting the Earth. Examples of debris include non-operational satellites, rocket bodies, and fragments generated from explosions, collisions, or faulty payload assembly.

Loading next visibility...
CZ-3B DEB details
Identifier
40185, 2011-077J
Orbit
Molniya
Last TLE update1 day ago
Origin
Flag of CNCASC (CN / PRC)
ManufacturerCALT
MissionSpacecraft
Bus & MotorUnknown
MassUnknown
Launch date (UTC)
2011-12-19 (13 years ago)
Launch vehicleUnknown
Launch site
Xichang Space Center, China (XSC)
Object type
Payload
Rocket body
Debris
Shape & HBRUnknown
Radar Cross SectionMedium (>0.1 m² and <1 m²)

Expand to show TLE details & history

TLE from 1 day ago
0 CZ-3B DEB
1 40185U 11077J   24339.38433260  .00000406  00000-0  41951-2 0  9996
2 40185  25.6833  40.7700 7475031 346.8200   1.5044  1.92309910 74532
Epoch: 2024-12-04T09:13Z
Definitive object data (Epoch: 2024-12-04T09:13:26.336Z)
Latitude0.0007°
Longitude-171.2845°
Altitude604.372 km
Speed9.979 km/s
True Right ascension02h 43m 01s
True Declination0° 00' 02"
Sunlit
Object was in full shadow at TLE epoch
Visualization TLE readout
Latitude23.20443°
Longitude-109.17471°
Altitude3,992.562 km
Speed7.893 km/s
Apparent Right ascension05h 25m 24s
Apparent Declination0° 00' 07"
Sunlit
Object is in full shadow
Visualization observer readout
Local Sidereal Time08:27:35
Azimuth237.805° WSW
Elevation32.489°
Doppler factor1
Orbital elements
Apogee altitude41,361.793 km
Perigee altitude519.81 km
Semi-major axis27,318.939 km
Eccentricity0.7475031
Inclination25.6833°
RAAN40.77°
Arg. of periapsis346.82°
True anomaly15.51052°
Mean anomaly1.5044°
Eccentric anomaly5.92682°
Mean motion0.48067 °/min
BSTAR0.0041951
Orbital period748.95 mins
Loading maneuver chart data...
Loading historical data...
Loading historical data...
Loading historical data...
Loading historical data...
Loading historical data...
Loading historical data...
Loading historical data...

CZ-3B DEB Visibility forecast

Observer location: undefined°, undefined

Span
Click to sort rows by Start time (UTC) header in descending order
Start Az.
Max El. time (UTC)
Max El. Az.
Max El.
End time (UTC)
End Az.
651 mins2024-12-05 10:29:11.137Z237.694° WSW2024-12-05 10:48:11.137Z170.262° S42.339°2024-12-05 21:20:11.137Z218.388° SW
|